Regional Weather Roundup
Issued by NWS Pendleton, OR

Home | Current Version | Previous Version | Text Only | Print | Product List | Glossary On
Versions: 1 2 3 4 5 6 7 8 9 10 11 12 13 14 15 16 17 18 19 20 21 22 23 24 25 26 27 28 29 30 31 32 33 34 35 36 37 38 39 40 41 42 43 44 45 46 47 48 49 50
000
ASUS46 KPDT 211125
RWRPDT
PENDLETON REGIONAL WEATHER ROUNDUP
NATIONAL WEATHER SERVICE PENDLETON OREGON
300 AM PST SUN DEC 21 2014

NOTE: FAIR INDICATES FEW OR NO CLOUDS BELOW 12,000 FEET WITH NO
SIGNIFICANT WEATHER AND/OR OBSTRUCTIONS TO VISIBILITY.

# INDICATES UNOFFICIAL STATION AND DATA

WAZ520-211210-
EAST SLOPES OF WASHINGTON CASCADES

CITY            SKY/WX      TMP DP  RH  WIND    PRES   REMARKS
#BULLFROG 2SW   N/A         46  45  96  W1      27.21R
#BUMPING DAM    N/A         37  N/A N/A W10     N/A
#CLE ELUM HS    N/A         46  40  79  W10     29.58R
#CLE ELUM 2NW   N/A         44  39  82  SW2     N/A
#CLE ELUM LAKE  N/A         44  38  79  NW3     29.62R
#CLIFFDEL 2NW   N/A         38  38  100 N1      N/A
#GLENWOOD       N/A         50  46  86  S7      29.73R
#MANASTASH CYN  N/A         38  36  92  CALM    29.63R
#NELSON         N/A         44  43  96  W3      29.64R
#NELSON 3SW     N/A         43  38  82  SW2     29.86R
#NILE           N/A         35  35  100 W2      28.92R
#RONALD 2NW     N/A         44  41  89  W3      29.49R
#SNOWDEN        N/A         48  46  93  CALM    N/A
#TEANAWAY 4NE   N/A         43  43  100 W2      N/A
#TROUT LAKE HS  N/A         52  45  77  SW1     N/A
#TROUT LAKE 1NE N/A         51  45  80  W14G37  29.73R
$$

WAZ521-211210-
SIMCOE HIGHLANDS

CITY            SKY/WX      TMP DP  RH  WIND    PRES   REMARKS
#BICKLETON HS   N/A         47  38  71  W22G32  34.25S WCI 39
#CENTERVILLE 4W N/A         51  46  83  W24     29.45R
#CENTERVILLE 1SWN/A         51  46  83  W28     29.68R
#GOLDENDALE     N/A         51  48  89  W15G24  N/A
#GOLDENDALE 1NE N/A         51  46  83  SW7     N/A
#GOLDENDALE 1S  N/A         50  47  89  SW18G35 29.69R
#GOLDENDALE 5WNWN/A         51  46  83  W18     29.73R
#GOODNOE HILLS  N/A         53  45  74  W35G43  N/A
#LYLE 6NE       N/A         51  48  89  W20G36  29.72R
$$

WAZ026-211210-
KITTITAS VALLEY

CITY            SKY/WX      TMP DP  RH  WIND    PRES   REMARKS
ELLENSBURG AP   LGT RAIN    46  41  83  W12     29.59R WCI 40
#ELLENSBURG CWU N/A         44  42  93  W10     29.58R
#ELLENSBURG 3NE N/A         40  39  96  CALM    29.62R
#ELLENSBURG     N/A         49  46  89  SW7     N/A
#KITTITAS 3S    N/A         38  37  96  CALM    29.62R
#THORP 6N       N/A         44  42  93  W15     29.65R WCI 37
$$

WAZ027-211210-
YAKIMA VALLEY

CITY            SKY/WX      TMP DP  RH  WIND    PRES   REMARKS
YAKIMA AIRPORT  CLOUDY      42  40  93  E3      29.62R
YAKIMA-VAGABOND MOCLDY      43  41  93  SE8     29.61R
#DONALD 2NE     N/A         50  43  77  CALM    28.51R
#GRANDVIEW      N/A         55  43  64  W3      29.65R
#MABTON         N/A         57  47  69  W10     29.63R
#MOXEE 2E       N/A         36  34  92  CALM    29.97R
#NACHES 2SW     N/A         42  41  96  W1      29.60R
#OUTLOOK DOT    N/A         N/A N/A N/A S6      N/A
#SELAH 8E       N/A         41  41  100 SW2     N/A
#TERRACE HTS    N/A         41  40  96  CALM    29.61R
#WAPATO 4NE     N/A         50  43  77  CALM    28.51R
#WEST VALLEY    N/A         41  40  96  CALM    29.64R
#W YAKIMA       N/A         41  40  96  W1      29.68R
#WHITE SWAN 5E  N/A         51  48  89  SW14    29.62R
#WILEY CITY 3W  N/A         40  35  82  CALM    29.59R
$$

WAZ028-211210-
LOWER COLUMBIA BASIN...WASHINGTON

CITY            SKY/WX      TMP DP  RH  WIND    PRES   REMARKS
PASCO           CLOUDY      57  51  80  SW23G32 29.61R
PROSSER AWOS    N/A         55  45  69  W14     29.67R
RICHLAND AWOS   CLOUDY      57  48  72  SW10    29.61R
#BASIN CITY 5SW N/A         53  49  86  W6      29.58R
#BENTON CITY    N/A         55  46  72  W8      29.53R
#CONNELL 5N     N/A         49  47  93  W5      29.56S
#CONNELL 5NW    N/A         49  47  93  W1      29.53S
#ELTOPIA        N/A         55  51  86  W9      29.55R
#ELTOPIA 6NW    N/A         54  49  83  W10     28.56R
#KAHLOTUS       N/A         50  48  93  NW8     29.58R
#KENNEWICK      N/A         46  45  96  W1      27.21R
#KENNEWICK 3S   N/A         54  50  86  S12G28  29.61R
#PASCO-BROADMOORN/A         56  49  77  SW7     29.50R
#PATERSON       N/A         54  50  86  W13     29.64F
#PROSSER        N/A         56  43  62  SW8     29.62R
#SAGEMOOR 2W    N/A         54  50  86  S10     29.44R
#TOUCHET 2S     N/A         59  51  75  SW28G40 29.59R
#WEST PASCO     N/A         57  50  77  SW8     29.58R
$$

WAZ029-211210-
FOOTHILLS OF THE BLUES...WASHINGTON

CITY            SKY/WX      TMP DP  RH  WIND    PRES   REMARKS
WALLA WALLA AP  CLOUDY      59  48  67  SW24G33 29.63R
#COLLEGE PLACE  N/A         59  46  62  SW15    29.66R
#DAYTON SCHOOL  N/A         55  45  69  SW12G31 29.63R
#LOWDEN 2SE     N/A         60  51  72  W21G37  29.59R
#PLEASANT VIEW 1N/A         51  48  89  SW17G31 29.62R
#PRESCOTT       N/A         57  51  80  SW15G30 29.57R
#SUDBURY        N/A         59  N/A N/A CALM    N/A
#WHITMAN COLLEGEN/A         59  50  72  SW16G35 29.69R
#WAITSBURG 5S   N/A         54  49  83  W28G44  29.71R
#WALLA WALLA 5E N/A         57  50  77  W25G33  N/A
#WALLA WALLA U  N/A         60  51  72  SW2     29.64R
#WHITMAN MISSIONN/A         59  51  75  SW15    29.64R
$$

WAZ030-211210-
BLUE MOUNTAINS...WASHINGTON

CITY            SKY/WX      TMP DP  RH  WIND    PRES   REMARKS
#DIXIE 5SE      N/A         49  44  83  W22G33  29.57R WCI 42
#SKI BLUEWOOD   N/A         42  40  93  N14G53  29.69R WCI 35
$$

ORZ009-041-WAZ024-211210-
COLUMBIA RIVER GORGE

CITY            SKY/WX      TMP DP  RH  WIND    PRES   REMARKS
HOOD RIVER AP   LGT DRIZZLE 57  45  64  W10G24  29.74R
THE DALLES AP   CLOUDY      57  47  69  W16     29.74R
#ARLINGTON AIRPON/A         54  48  80  W23     29.95F
#ARLINGTON HS   N/A         57  48  72  N14     29.60S
#CELILO DOT     N/A         55  45  69  SW7     N/A
#LYLE           N/A         57  50  77  W2      29.75R
#MARYHILL 2W    N/A         53  50  89  S6      N/A
#MOSIER 1S      N/A         54  40  59  W8      29.79R
#MURDOCK        N/A         56  51  83  NW5     29.79R
#RUFUS DOT      N/A         54  43  66  CALM    N/A

$$

ORZ510-211210-
NORTH CENTRAL OREGON

CITY            SKY/WX      TMP DP  RH  WIND    PRES   REMARKS
#CHENOWITH 1W   N/A         50  45  83  W15     N/A
#COW CYN RST AREN/A         49  48  96  SW7     N/A
#DUFUR 9E       N/A         50  44  80  W18G29  29.80R
#GRASS VALLEY   N/A         49  49  100 W5      N/A
#GRASS VALLEY 1SN/A         49  48  96  SW8     29.77R
#KENT DOT       N/A         50  44  80  SW23    N/A
#MAUPIN SCHOOL  N/A         55  50  83  SW1     29.78R
#MORO SCHOOL    N/A         52  48  86  W17G26  29.76S
#SHANIKO 4NW    N/A         46  45  96  W17G29  29.80R WCI 39
#TYGH VALLEY 2NEN/A         54  50  86  CALM    29.76R
#WAPANITIA AIRPON/A         52  48  86  W3      29.79R
#WASCO AIRPORT  N/A         50  47  89  W12     N/A
#WASCO 5NE      N/A         49  47  93  W9      29.71F
$$

ORZ511-211210-
CENTRAL OREGON

CITY            SKY/WX      TMP DP  RH  WIND    PRES   REMARKS
BEND AIRPORT    LGT RAIN    48  45  89  SW9     29.88R
MADRAS AIRPORT  RAIN        50  48  93  SW8     29.84R
PRINEVILLE AP   CLOUDY      50  46  86  SW8     29.88R
REDMOND AIRPORT LGT RAIN    47  46  96  SE5     29.86R
#BEND 1SW       N/A         45  44  96  SW1     N/A
#BEND-AWBREY    N/A         47  46  96  SW3     29.90R
#BEND-KIM LN    N/A         47  46  96  SW3     29.84R
#CROOKED RVR RANN/A         51  47  86  NW7     29.85R
#CULVER         N/A         52  47  83  SW8     29.80R
#LAKE BILLY CHINN/A         52  34  50  W10     29.92R
#POWELL BUTTE 3EN/A         51  46  83  SW12    N/A
#POWELL BUTTE   N/A         49  44  83  W9      29.52R
#PRINEVILLE 3N  N/A         47  46  96  S2      29.83R
#WARM SPRINGS   N/A         51  49  93  CALM    29.78R


ORZ509-211210-
EAST SLOPES OF OREGON CASCADES

CITY            SKY/WX      TMP DP  RH  WIND    PRES   REMARKS
#BLUE BOX PASS  N/A         42  -9  11  SW7     N/A
#BLACK BUTTE RNCN/A         48  47  96  S1      29.86R
#CAMP SHERMAN   N/A         48  46  93  CALM    29.83R
#LA PINE DOT    N/A         45  43  93  S3      N/A
#LA PINE 4NW    N/A         44  42  93  W1      29.99S
#LAVA BUTTE DOT N/A         44  43  96  S3      N/A
#MT BACHELOR-MIDN/A         35  34  96  E35G63  N/A    WCI 21
#SISTERS AIRPOR N/A         50  50  100 N8      30.17S
#SISTERS ODOT   N/A         51  N/A N/A S7      N/A
#SISTERS 1NW    N/A         51  45  80  NW8     N/A
#SISTERS 3N     N/A         47  46  96  W2      29.90R
#SUNRIVER       N/A         45  45  100 S2      29.82R
#TUMALO 3W      N/A         50  45  83  W6      29.76R
#WANOGA BUTTE D N/A         40  40  100 W13G29  N/A    WCI 32

$$

ORZ044-211210-
LOWER COLUMBIA BASIN...OREGON

CITY            SKY/WX      TMP DP  RH  WIND    PRES   REMARKS
HERMISTON       CLOUDY      58  48  69  SW29G39 29.64R
#BOARDMAN 3W    N/A         54  48  80  SW21    29.38R
#BOARDMAN 8SW   N/A         55  50  83  SW15    29.70R
#ECHO 8SW       N/A         56  50  80  W12G29  29.62S
#IONE SCHOOL    N/A         57  41  55  W21     29.69R
#IRRIGON 4NW    N/A         54  54  100 S16     N/A
#UMATILLA SCHOOLN/A         54  54  100 NE14G26 29.66R
#UMATILLA       N/A         57  48  72  SW15G31 29.62R
$$

ORZ507-211210-
NORTHERN FOOTHILLS OF THE BLUES

CITY            SKY/WX      TMP DP  RH  WIND    PRES   REMARKS
PENDLETON AIRPT LGT RAIN    56  48  74  W29G45  29.67R
#ADAMS 3WNW     N/A         54  49  83  W18G35  29.67R
#ATHENA         N/A         55  49  80  W18G29  29.70R
#HELIX SCHOOL   N/A         54  49  83  NW15G33 29.67R
#HELIX 3N       N/A         53  49  86  W29G43  29.64R
#HOLDMAN 5SE    N/A         55  50  83  W17G26  29.69R
#HOLDMAN 6E     N/A         53  49  86  NE18G28 29.48R
#M-F GROVE ELEM N/A         58  47  67  SW15G29 29.65R
#M-FREEWATER 5SEN/A         57  49  75  SW22G35 29.68R
#PENDLETON DNTN N/A         59  43  55  SW8     28.49R
#PDT AQUATIC CTRN/A         60  46  60  W14G29  29.67R
#PENDLETON 5NE  N/A         57  50  77  W7G24   29.65R
#PENDLETON 7NW  N/A         55  49  80  W15G31  25.13S
#PILOT ROCK     N/A         56  44  64  SW5     29.74R
#TUTUILLA       N/A         57  48  72  W23G38  29.70R
#UMAPINE 2E     N/A         60  51  72  W16G35  29.62R
#WESTON SCHOOL  N/A         54  46  74  NW21G43 29.68R

$$

ORZ508-211210-
SOUTHERN FOOTHILLS OF THE BLUES

CITY            SKY/WX      TMP DP  RH  WIND    PRES   REMARKS
LEXINGTON       CLOUDY      55  48  77  SW22G29 29.74R
#AJAX           N/A         52  43  71  S23G36  29.68S
#CONDON SCHOOL  N/A         50  47  89  CALM    29.72S
#CONDON 5W      N/A         50  47  89  SW22G32 29.72R
#FOSSIL SCHOOL  N/A         53  47  80  W15G26  29.77R
#HEPPNER EOC    N/A         52  48  86  W2      29.68R
#HEPPNER 4NE    N/A         50  47  89  W20G32  29.71R
#LEXINGTON 2SE  N/A         56  49  77  W14     29.67R
#MIKKALO        N/A         54  45  71  W24G33  29.71S
#OLEX 4N        N/A         53  50  89  SW17G25 29.69R
#RUGGS 5NE      N/A         51  47  86  SW21G36 29.88R
#RUGGS 2SW      N/A         51  46  83  SW20G26 29.74R

$$

ORZ502-503-211210-
BLUE MOUNTAINS

CITY            SKY/WX      TMP DP  RH  WIND    PRES   REMARKS
MEACHAM         CLOUDY      48  44  86  W9      29.70R
#BATTLE MTN DOT N/A         43  43  100 SW2     N/A
#HARDMAN 10S    N/A         45  43  93  NW3     29.94R
#HEPPNER 15SE   N/A         45  42  89  NW8     29.64R
#LADD CYN SMT   N/A         41  36  82  E12     N/A    WCI 34
#LADD CREEK ODOTN/A         51  39  63  S3      N/A
#LONG CREEK HS  N/A         47  45  93  CALM    29.76R
#N POWDER DOT   N/A         41  38  89  SE10    N/A
#PIKES PEAK     N/A         48  45  89  SW61G73 27.99S WCI 36
#TOLLGATE       N/A         41  41  100 S13G26  29.62R
#TROY SCHOOL    N/A         39  38  96  CALM    29.52R
#UKIAH          N/A         46  44  93  S5      29.85R
#WESTON 4E      N/A         49  46  89  SW20G35 29.65R WCI 42
$$

ORZ505-211210-
JOHN DAY BASIN

CITY            SKY/WX      TMP DP  RH  WIND    PRES   REMARKS
JOHN DAY        LGT RAIN    48  45  89  W8      29.84R
#JOHN DAY KJDY  N/A         48  38  68  SW1     29.91F
#DAYVILLE SCHOOLN/A         32  29  89  CALM    30.16S
#MONUMENT HS    N/A         43  41  93  NE1     29.80R
#MT. VERNON 5SE N/A         46  42  86  SE2     29.78R
#WINLOCK        N/A         50  47  89  E14     29.88R
$$

ORZ506-211210-
OCHOCO AND JOHN DAY HIGHLANDS

CITY            SKY/WX      TMP DP  RH  WIND    PRES   REMARKS
#BUCK CREEK DOT N/A         48  48  100 SW29    N/A    WCI 39
#HORSE RIDGE DO N/A         49  42  77  SW16G35 N/A    WCI 43
#KEYES SMT DOT  N/A         47  43  86  W10     N/A
#PRAIRIE CITY   N/A         44  40  86  W7      29.86R
#SENECA         N/A         42  N/A N/A SW6     N/A
#SENECA 9NW     N/A         40  40  100 NW2     29.89R
$$

ORZ049-211210-
GRANDE RONDE VALLEY

CITY            SKY/WX      TMP DP  RH  WIND    PRES   REMARKS
LA GRANDE       MOCLDY      52  39  61  W25G30  29.69R
#COVE           N/A         50  44  80  CALM    30.03S
#COVE SCHOOL    N/A         50  43  77  CALM    29.72R
#COVE 6NW       N/A         44  40  86  S3      29.78R
#ELGIN 3N       N/A         52  43  71  SW15    29.43R
#ELGIN 1E       N/A         47  43  86  S1      N/A
#IMBLER SCHOOL  N/A         50  45  83  SW10G26 29.68R
#ISLAND CITY 4N N/A         53  50  89  CALM    29.83R
#LADD CYN DOT   N/A         54  41  61  S7      N/A
#UNION 1S       N/A         45  40  82  S8      29.67R
$$

ORZ050-211210-
WALLOWA COUNTY

CITY            SKY/WX      TMP DP  RH  WIND    PRES   REMARKS
JOSEPH AIRPORT  RAIN        46  39  76  W8      29.64R
#ENTERPRISE AP  N/A         50  39  66  W15G31  29.61R
#ENTERPRISE HS  N/A         51  43  74  W10G26  29.68R
#IMNAHA SCHOOL  N/A         47  40  76  S14G25  29.68R WCI 41
#IMNAHA 10S     N/A         39  36  89  CALM    29.70R
#JOSEPH 3N      N/A         49  40  71  W15G36  29.68F WCI 43
#JOSEPH 3W      N/A         43  38  82  SW1     29.53R
#LOSTINE        N/A         49  42  77  SW7     29.49R
#MT HOWARD 8000 N/A         34  33  96  W22G47  29.64F WCI 22
#PROMISE 1S     N/A         45  42  89  E10     29.73R
#SHEEP RDG 7000 N/A         35  33  92  CALM    29.59S
#WALLOWA SCHOOL N/A         50  44  80  W7      30.67R



$$



USA.gov is the U.S. government's official web portal to all federal, state and local government web resources and services.